Torna al catalogo

SL-12 R/B(2)

AttivoGEO
NORAD 11570·ROCKET BODY·🇷🇺 Russia

Lanciato Jul 23, 1977 da Baikonur Cosmodrome

Loading…

TLE

AggiornatoSource: Space-Track

Epoca: Sep 14, 2026, 12:50 UTC

1 11570U 77071F   26257.53537848 -.00000186  00000-0  00000-0 0  9997
2 11570   5.4314 281.7442 0009185 156.4155 270.6977  0.97739195120271

Traccia SL-12 R/B(2) in tempo reale con AllMySat

Download on the App Store